Forside
METAR-TAF:

METAR-TAF

Lufthavne :

Eveleth-Virginia Municipal Airport

Eveleth, Minnesota, USA

Breddekreds: 47-24N, længdekreds: 092-30W, højde: 421 m

Aktuelle vejr

Denne rapport blev lavet for 4 minutter siden, kl. 09:16 UTC
Vind 4 kt fra østnordøst
Temperatur -10°C
Fugtighed 92%
Tryk 1015 hPa
Sigt: 16.1 km
Overskyet i en højde af 500 ft
let sne

METAR: KEVM 130916Z AUTO 06004KT 10SM -SN OVC005 M10/M11 A2996 RMK AO2 T11051115

Tid: 03:20 (09:20 UTC)


TAF: fraværende

Vejrobservationer og prognoser fra mere end 4000 lufthavne (METAR og TAF).

De gule og røde prikker repræsenterer de meteorologiske stationer.

Flyt musen over at se navnet på stationen.

Så klik over at se vejr observationer og prognoser.

At skifte det kort: Klik på de grønne knapper med et sort kors for at zoome ind; på den grønne knap med en bindestreg for at zoome ud; eller på de grønne pile for tilstødende kort.


METAR-TAF: